Dr. Bill's Marine Weather

Coastal Marine Forecast

       Alabama   Florida   Louisiana   Mississippi

Printer Friendly AL  FL  LA  MS

Data Buoys:   Western Gulf of Mexico    Eastern Gulf of Mexico
**********************************************************************
  Alabama
900 AM CDT SUN APR 20 2014

ALZ051>064-201500-
SOUTHWEST ALABAMA
  
CITY           SKY/WX    TMP DP  RH WIND       PRES   REMARKS
MOBILE         MOSUNNY   61  52  72 NE13      30.20R                  
BROOKLEY FIELD SUNNY     62  52  69 NE15      30.20F                  
EVERGREEN      CLOUDY    57  50  77 N6        30.24R                  
**********************************************************************
  Florida
1000 AM EDT SUN APR 20 2014

FLZ001>010-012>015-112-114-115-201500-
PANHANDLE FLORIDA
  
CITY           SKY/WX    TMP DP  RH WIND       PRES   REMARKS
PENSACOLA      MOSUNNY   62  51  67 N9        30.18R                  
PENSACOLA NAS  PTSUNNY   61  52  72 NE12      30.18R                  
MILTON NAS     CLOUDY    59  49  69 NE7       30.19R                  
CRESTVIEW      CLOUDY    57  52  83 NE5       30.21R                  
DUKE FIELD     CLOUDY    57  52  82 NE8       30.19R                  
VALPARAISO     CLOUDY    59  53  81 N9        30.18S                  
MARY ESTHER    CLOUDY    59  49  68 N10       30.17S                  
PANAMA CITY    CLOUDY    59  52  77 N9        30.16R                  
TYNDALL AFB    CLOUDY    59  53  79 NE8       30.16R                  
APALACHICOLA   CLOUDY    61  54  77 N12       30.14R                  

STATION/POSITION SKY/WX   TEMP    WIND        PRES    WAVE   SWELL
                          AIR SEA DIR/SP/G            HT/PER HT/PER
                          (F)     (DEG/KT/KT) (MB)    (FT/S) (FT/S)
30.1N   87.6W              60 66   10/ 10/ 12 1022.0R   2/ 4
29.2N   88.2W              65 71   20/ 12/ 14 1021.3R
28.8N   86.0W              63 67   20/  6/ 10 1020.7R   3/ 5   2/ 5
PANAMA CITY BEAC           58 66   10/  8/ 11 1021.1R
CAPE SAN BLAS    NOT AVBL
TOWER C                    58      20/ 14/ 15 1020.4R
28.5N   84.5W              63 68   20/ 12/ 14 1019.2R   3/ 6   2/ 6

**********************************************************************
  Louisiana
900 AM CDT SUN APR 20 2014

LAZ040-048-061>063-065-066-069-201500-
SOUTHEAST LOUISIANA
  
CITY           SKY/WX    TMP DP  RH WIND       PRES   REMARKS
N.O. AUDUBON     N/A     70  60  70 MISG        N/A                   
N.O. INTL ARPT MOSUNNY   69  60  73 E7        30.18R                  
N.O. LAKEFRONT SUNNY     69  60  73 E9        30.18R                  
N.O. DOWNTOWN* FAIR      72  55  56 CALM      30.18R                  
SLIDELL        SUNNY     66  59  78 E6        30.17S                  
BATON ROUGE    SUNNY     68  54  60 NE5       30.18R                  
BOOTHVILLE     SUNNY     66  62  87 E5        30.18R                  
BELLE CHASSE   MOSUNNY   70  61  73 SE8       30.17R                  
BOGALUSA*        N/A     66  56  69 E3        30.21S                  
GALLIANO*      SUNNY     70  62  75 CALM      30.17R                  
NEW ROADS*     FAIR      67  56  68 NE3       30.18S                  
GONZALES*      FAIR      67  55  66 CALM      30.17S                  
HAMMOND*       SUNNY     68  55  64 CALM      30.20R                  
HOUMA*         SUNNY     68  57  68 CALM      30.18                   
PORT FOURCHON* SUNNY     70  63  78 CALM      30.18R HAZE             

**********************************************************************
  Mississippi
900 AM CDT SUN APR 20 2014

MSZ080>082-201500-
COASTAL MISSISSIPPI
  
CITY           SKY/WX    TMP DP  RH WIND       PRES   REMARKS
BAY ST LOUIS   SUNNY     64  54  68 NE7       30.18F                  
BILOXI         SUNNY     65  54  68 E9        30.18F                  
PASCAGOULA     SUNNY     64  54  69 NE10      30.19S                  
GULFPORT       SUNNY     68  54  60 NE9       30.18F                  
About Us | Coastal Marine Forecast | Offshore Marine Forecast | Marine Weather Discussion
Gulf Coast Tides | Exxon Mobil Platform 112B | Hourly Weather Observations | Weather Radar
Severe Weather Potential | Sea Surface Temperatures | Solar/Lunar Data | Hurricane Advisories | Home
     
USA Logo Dr. Bill's Marine Weather
Last date changed: February 4, 2005 12:04 PM
www.gulfmarineweather.com/hourlyweatherobservations.shtml
Contact Us